Location: Wildcat Hills Observatory
(41.6350°N, 103.6812°W)
Time: 20:35:25
(UTC-06:00)

Daily predictions for brighter satellites

Satellite Brightness Start Highest point End
(mag) Time Altitude Azimuth Time Altitude Azimuth Time Altitude Azimuth
Okean 3 Rocket 4.0 19:36:27 10° N 19:40:37 40° ENE 19:44:46 10° SSE
Cosmos 1766 3.2 19:39:06 10° S 19:42:57 72° E 19:46:51 10° NNE
Abrixas 2.3 19:41:04 10° WNW 19:43:55 74° NNE 19:46:44 10° ESE
Cosmos 1934 Rocket 3.9 19:38:35 10° S 19:44:41 77° E 19:50:46 10° N
Cosmos 1076 Rocket 4.4 19:41:03 10° NNE 19:44:45 28° ENE 19:48:24 10° SE
Cosmos 1844 4.5 19:39:21 10° SW 19:45:03 60° WNW 19:50:48 10° NNE
Tiangong 1 3.0 19:42:42 10° W 19:45:03 22° SSW 19:47:24 10° SSE
Lacrosse 4 Rocket 3.6 19:42:03 10° WSW 19:45:36 29° NW 19:49:10 10° N
Cosmos 1674 4.2 19:45:20 10° NNE 19:48:05 19° ENE 19:50:49 10° ESE
Cosmos 1812 Rocket 3.9 19:45:29 10° SSW 19:49:53 73° W 19:54:16 10° N
COSMOS 2487 3.6 19:50:47 10° N 19:53:51 26° ENE 19:56:53 10° ESE
Lacrosse 5 rocket 2.7 19:52:00 10° NNW 19:55:16 23° NNE 19:58:14 11° E
Helios 1A 4.0 19:53:55 10° SE 19:57:24 26° ENE 20:00:54 10° N
Cosmos 1818 3.6 19:53:28 10° NNW 19:58:55 68° NE 20:04:18 10° SE
ISS -2.6 19:57:18 10° S 19:59:57 23° SE 20:02:04 13° E
Cosmos 1269 Rocket 4.3 19:57:18 10° N 20:02:25 47° ENE 20:07:30 10° SE
USA 186 2.3 20:04:49 18° E 20:05:23 20° ENE 20:07:08 10° NNE
Cosmos 1766 Rocket 4.2 20:02:05 10° N 20:06:14 36° ENE 20:10:21 10° SE
GP-B 3.8 20:03:42 10° SE 20:07:41 33° E 20:11:39 10° NNE
CZ-3B DEB 3.5 19:56:19 10° WSW 20:07:42 59° NW 20:12:52 10° NE
Cosmos 468 4.5 20:02:42 10° NNW 20:07:57 76° ENE 20:13:11 10° SSE
Meteor 1-4 Rocket 2.5 20:04:58 10° S 20:08:21 54° E 20:11:46 10° NNE
CZ-2D R/B 3.4 20:05:32 10° SSE 20:09:18 53° ENE 20:13:06 10° N
In-Cosmos 22 4.1 20:04:41 10° N 20:10:01 86° W 20:15:17 10° S
Cosmos 372 Rocket 4.2 20:05:49 10° S 20:10:40 46° ESE 20:15:35 10° NNE
Cosmos-2242 3.7 20:08:42 10° SSE 20:12:27 31° E 20:16:15 10° NNE
Cosmos 1805 3.2 20:09:23 10° S 20:13:16 83° E 20:17:11 10° N
RESURS DK-1 4.2 20:09:38 10° NW 20:13:21 33° WSW 20:17:03 10° S
Resurs 01 Rocket 1.6 20:11:10 10° SSE 20:15:35 89° ENE 20:20:01 10° NNW
Cosmos 158 Rocket 4.2 20:10:59 10° N 20:16:00 51° ENE 20:20:47 12° SE
Cosmos 1544 3.1 20:15:27 10° S 20:19:05 81° W 20:22:46 10° N
Meteor 1-21 Rocket 4.3 20:14:29 10° N 20:20:19 67° ENE 20:26:11 10° SSE
USA 215 3.9 20:16:03 10° ENE 20:21:41 30° SE 20:27:17 10° S
Cosmos 2098 Rocket 4.4 20:17:19 10° S 20:24:34 77° E 20:32:10 10° N
FENGYUN 3A 4.4 20:19:31 10° S 20:24:49 56° W 20:30:08 10° NNW
Lacrosse 5 3.2 20:20:54 10° WSW 20:25:38 39° NW 20:30:24 10° NE
Cosmos 1833 Rocket 2.7 20:21:32 10° NNW 20:27:09 67° ENE 20:31:55 14° SE
Cosmos 1470 3.0 20:26:35 10° SSE 20:30:23 46° E 20:34:13 10° NNE
Cosmos 1605 Rocket 4.4 20:24:14 10° SSW 20:30:28 69° W 20:36:50 10° N
Spot 2 Rocket 3.8 20:25:58 10° S 20:31:03 72° WSW 20:36:11 10° NNW
Cosmos 2100 Rocket 4.1 20:27:24 10° SSE 20:33:31 55° E 20:39:43 10° NNE
Cosmos 1733 3.4 20:30:02 10° SSE 20:33:45 48° E 20:37:30 10° NNE
Cosmos 1867 3.6 20:29:44 10° SSW 20:35:11 86° WNW 20:40:42 10° NNE
Cosmos 2278 Rocket 3.6 20:29:58 10° SW 20:35:20 42° WNW 20:40:43 10° NNE
Cosmos 1743 Rocket 4.2 20:33:27 10° N 20:37:34 36° ENE 20:38:55 29° ESE
Fregat R/B Cluster 11 4.2 20:31:41 10° SSW 20:37:59 87° WNW 20:41:22 10° NNE
Cosmos 1340 Rocket 2.9 20:37:28 10° N 20:41:25 52° ENE 20:42:57 32° SE
ATLAS 5 CENTAUR R/B 1.7 20:37:08 10° SSW 20:41:45 72° ESE 20:46:50 10° NE
H-2A R/B 4.4 20:42:26 10° SSW 20:46:02 36° W 20:49:42 10° NNW
SJ-11-01 4.3 20:46:37 28° SE 20:49:00 58° ENE 20:53:39 10° N
Cosmos 1184 Rocket 3.9 20:45:55 10° N 20:48:23 31° NE 20:48:23 31° NE
Envisat 3.0 20:45:57 22° SSE 20:49:11 64° ENE 20:54:14 10° N
Cosmos 2297 4.1 20:46:42 10° SW 20:52:21 65° WNW 20:58:06 10° NNE
Cosmos 1802 Rocket 3.9 20:50:02 10° S 20:56:05 65° E 21:02:11 10° NNE
Cosmos 1408 Rocket 4.0 20:53:39 10° NNW 20:58:05 63° W 21:02:21 11° S
Cosmos 2058 4.5 20:55:31 10° NNE 20:57:44 21° NE 20:57:44 21° NE
H-2A R/B 4.0 21:02:14 15° NE 21:02:14 15° NE 21:04:39 10° NNE
Geosat 4.2 20:56:55 10° NNE 21:01:56 71° WNW 21:06:56 10° SW
ERS-1 Rocket 3.2 21:03:18 43° ESE 21:04:13 48° ENE 21:09:04 10° N
SeaSat 1 4.4 21:00:38 10° SSW 21:04:43 26° WSW 21:08:50 10° NW
Cosmos 2082 Rocket 2.8 20:59:45 10° NNW 21:05:17 54° WSW 21:09:47 15° S
SL-14 R/B 3.8 21:02:52 10° N 21:05:54 41° NE 21:05:54 41° NE
GPS 2-05 Rocket1 4.4 21:06:48 10° WSW 21:09:03 26° SSW 21:09:03 26° SSW
Cosmos 2151 3.7 21:06:03 10° N 21:09:14 36° NE 21:09:14 36° NE
Meteor 1-11 4.3 21:05:07 10° N 21:10:34 52° ENE 21:11:31 46° ESE
Cosmos 2061 Rocket 4.0 21:05:12 10° S 21:11:36 88° W 21:18:05 10° N
Cosmos 1328 3.8 21:07:48 10° N 21:11:24 61° NE 21:11:24 61° NE
Cosmos 1842 Rocket 3.4 21:11:40 64° ESE 21:11:53 66° E 21:16:15 10° NNE
Cosmos 1271 Rocket 3.6 21:08:40 10° SSW 21:12:35 52° WNW 21:16:32 10° N
TIMED 4.4 21:09:17 10° SSW 21:13:39 86° ESE 21:18:02 10° NNE
ARGOS 4.1 21:14:10 30° ENE 21:14:10 30° ENE 21:18:28 10° N
Helios 1B rocket 3.4 21:10:23 10° N 21:14:21 47° WNW 21:18:18 10° SW
Meteor 1-16 Rocket 4.2 21:11:26 19° S 21:15:40 69° E 21:21:35 10° NNE
Timation 2 Rocket 4.4 21:10:53 10° NNW 21:17:02 58° WSW 21:20:52 22° S
Meteor 1-29 4.2 21:16:50 10° N 21:20:08 42° WNW 21:23:14 11° SW
YAOGAN 6 3.6 21:22:03 40° N 21:22:03 40° N 21:24:37 10° N
Cosmos 1939 Rocket 3.1 21:20:09 52° SSW 21:20:58 68° W 21:25:07 10° NNW
Cosmos 1459 Rocket 4.3 21:15:49 10° SSW 21:22:02 68° W 21:28:12 10° N
CZ-4B DEB 4.5 21:25:30 29° WSW 21:25:36 29° W 21:28:22 10° NW
Cosmos 2173 Rocket 4.4 21:23:06 10° SSW 21:29:10 61° W 21:35:24 10° N
Cosmos 1864 Rocket 4.4 21:32:40 45° SSE 21:34:41 75° E 21:41:00 10° N
Lacrosse 5 rocket 2.2 21:30:57 10° NW 21:33:58 42° W 21:33:58 42° W
ISS -1.6 21:33:08 10° WSW 21:34:48 25° W 21:34:48 25° W
Cosmos 2251 Rocket 3.5 21:36:09 10° NNW 21:41:29 77° WSW 21:41:56 71° SSW
Cosmos 2369 Rocket 3.9 22:00:18 21° NNE 22:00:18 21° NNE 22:02:03 10° NNE
MetOp-B 4.4 22:05:13 66° NW 22:05:13 66° NW 22:09:58 10° NNW
USA 215 3.3 21:58:30 10° NE 22:05:02 76° NW 22:11:32 10° WSW
Lacrosse 5 4.5 22:06:48 10° NW 22:09:54 16° NNW 22:12:59 10° NNE
Cosmos 1725 Rocket 4.4 22:08:00 39° SW 22:10:10 58° W 22:16:17 10° N
SPOT 5 3.6 22:12:49 56° NW 22:12:49 56° NW 22:17:05 10° NNW
CZ-3B DEB 4.1 22:16:07 10° WNW 22:20:02 17° NNW 22:21:29 15° N
Terra 4.0 22:26:49 18° N 22:26:49 18° N 22:28:10 10° N
ATLAS 5 CENTAUR R/B 4.3 22:23:27 10° W 22:27:03 20° NW 22:30:55 10° NNE
USA 267 3.6 22:38:11 60° N 22:38:11 60° N 22:43:47 10° NW
H-2A R/B 3.5 22:42:52 34° NNW 22:42:52 34° NNW 22:45:48 10° NNW
